GALACT SCLC-SCLC

Flight info

Callsign GALACT
Flight time 0h 54m
Altitude 4000
Route VFR TGL SCVH SCPD
Aircraft O1/L-S/C

Departure

Time 2026-04-26 23:32
Airport Municipal de Vitacura Airport (SCLC)

Arrival

Time 2026-04-27 00:27
Airport Municipal de Vitacura Airport (SCLC)
Time Latitude Longitude Altitude Speed Heading
2026-04-26 23:27 -33.38061 -70.58335 2254 ft 0 kts 81°
2026-04-26 23:27 -33.38056 -70.58303 2254 ft 14 kts 82°
2026-04-26 23:27 -33.38036 -70.58187 2254 ft 25 kts 76°
2026-04-26 23:28 -33.37998 -70.57911 2254 ft 25 kts 71°
2026-04-26 23:28 -33.37948 -70.57737 2255 ft 10 kts 63°
2026-04-26 23:28 -33.37933 -70.57684 2255 ft 11 kts 60°
2026-04-26 23:28 -33.37946 -70.57645 2255 ft 0 kts 165°
2026-04-26 23:29 -33.37947 -70.57645 2255 ft 0 kts 163°
2026-04-26 23:30 -33.37962 -70.57637 2255 ft 5 kts 151°
2026-04-26 23:30 -33.37979 -70.57623 2255 ft 1 kts 87°
2026-04-26 23:31 -33.37972 -70.57660 2255 ft 2 kts 219°
2026-04-26 23:31 -33.37998 -70.57742 2256 ft 30 kts 251°
2026-04-26 23:31 -33.38049 -70.58119 2428 ft 51 kts 262°
2026-04-26 23:31 -33.38120 -70.58596 2612 ft 71 kts 263°
2026-04-26 23:32 -33.38177 -70.59205 2874 ft 78 kts 265°
2026-04-26 23:32 -33.38250 -70.59890 3093 ft 83 kts 264°
2026-04-26 23:32 -33.38356 -70.60585 3285 ft 89 kts 268°
2026-04-26 23:32 -33.38263 -70.61343 3409 ft 97 kts 284°
2026-04-26 23:33 -33.38052 -70.62173 3349 ft 105 kts 290°
2026-04-26 23:33 -33.37778 -70.62968 3376 ft 104 kts 294°
2026-04-26 23:33 -33.37462 -70.63745 3357 ft 104 kts 297°
2026-04-26 23:33 -33.37110 -70.64503 3367 ft 104 kts 299°
2026-04-26 23:34 -33.36772 -70.65259 3403 ft 102 kts 295°
2026-04-26 23:34 -33.36579 -70.65767 3462 ft 99 kts 293°
2026-04-26 23:34 -33.36325 -70.66490 3635 ft 92 kts 297°
2026-04-26 23:34 -33.35917 -70.67076 3770 ft 93 kts 315°
2026-04-26 23:35 -33.35393 -70.67539 3878 ft 95 kts 333°
2026-04-26 23:35 -33.34757 -70.67756 3999 ft 96 kts 353°
2026-04-26 23:35 -33.34077 -70.67765 4054 ft 98 kts
2026-04-26 23:35 -33.33397 -70.67677 4059 ft 97 kts
2026-04-26 23:36 -33.32732 -70.67590 4104 ft 96 kts
2026-04-26 23:36 -33.32058 -70.67484 4139 ft 99 kts
2026-04-26 23:36 -33.31370 -70.67319 4116 ft 103 kts
2026-04-26 23:36 -33.30649 -70.67219 4079 ft 105 kts
2026-04-26 23:37 -33.29925 -70.67151 3986 ft 106 kts
2026-04-26 23:37 -33.29195 -70.67112 3905 ft 105 kts
2026-04-26 23:37 -33.28466 -70.67122 3807 ft 105 kts 352°
2026-04-26 23:37 -33.27747 -70.67199 3747 ft 103 kts 356°
2026-04-26 23:38 -33.27027 -70.67193 3659 ft 104 kts 360°
2026-04-26 23:38 -33.26312 -70.67132 3633 ft 101 kts
2026-04-26 23:38 -33.25612 -70.67040 3669 ft 100 kts
2026-04-26 23:38 -33.24920 -70.66952 3704 ft 100 kts
2026-04-26 23:39 -33.24235 -70.66931 3746 ft 98 kts 360°
2026-04-26 23:39 -33.23556 -70.66948 3807 ft 97 kts 356°
2026-04-26 23:39 -33.22878 -70.66929 3849 ft 98 kts
2026-04-26 23:39 -33.22195 -70.66880 3907 ft 98 kts
2026-04-26 23:40 -33.21515 -70.66788 3956 ft 98 kts
2026-04-26 23:40 -33.20836 -70.66780 4011 ft 97 kts 355°
2026-04-26 23:40 -33.20162 -70.66699 4067 ft 99 kts 14°
2026-04-26 23:40 -33.19508 -70.66440 4126 ft 98 kts 17°
2026-04-26 23:41 -33.18859 -70.66200 4107 ft 98 kts 11°
2026-04-26 23:41 -33.18182 -70.66129 4043 ft 98 kts 356°
2026-04-26 23:41 -33.17512 -70.66277 3972 ft 98 kts 339°
2026-04-26 23:41 -33.16884 -70.66572 3931 ft 96 kts 335°
2026-04-26 23:42 -33.16284 -70.66909 3880 ft 96 kts 332°
2026-04-26 23:42 -33.15124 -70.67690 3695 ft 95 kts 329°
2026-04-26 23:42 -33.14543 -70.68080 3589 ft 95 kts 329°
2026-04-26 23:43 -33.13958 -70.68467 3519 ft 96 kts 329°
2026-04-26 23:43 -33.13381 -70.68878 3456 ft 96 kts 327°
2026-04-26 23:43 -33.12814 -70.69296 3330 ft 97 kts 327°
2026-04-26 23:43 -33.12240 -70.69697 3197 ft 92 kts 331°
2026-04-26 23:44 -33.11697 -70.70037 3119 ft 83 kts 328°
2026-04-26 23:44 -33.11249 -70.70366 3075 ft 73 kts 324°
2026-04-26 23:44 -33.10817 -70.70696 2961 ft 76 kts 340°
2026-04-26 23:44 -33.10365 -70.70489 2913 ft 72 kts 49°
2026-04-26 23:45 -33.10136 -70.69978 2758 ft 71 kts 78°
2026-04-26 23:45 -33.10280 -70.69457 2583 ft 70 kts 144°
2026-04-26 23:45 -33.10720 -70.69204 2419 ft 71 kts 154°
2026-04-26 23:45 -33.11131 -70.68896 2270 ft 68 kts 145°
2026-04-26 23:46 -33.11485 -70.68606 2202 ft 51 kts 147°
2026-04-26 23:46 -33.11818 -70.68320 2245 ft 77 kts 146°
2026-04-26 23:46 -33.12288 -70.67934 2504 ft 83 kts 146°
2026-04-26 23:46 -33.12765 -70.67507 2735 ft 89 kts 147°
2026-04-26 23:47 -33.13317 -70.67157 2926 ft 93 kts 171°
2026-04-26 23:47 -33.13903 -70.67374 3098 ft 93 kts 232°
2026-04-26 23:47 -33.13997 -70.68104 3222 ft 96 kts 288°
2026-04-26 23:47 -33.13594 -70.68735 3352 ft 97 kts 314°
2026-04-26 23:48 -33.13063 -70.69268 3303 ft 100 kts 323°
2026-04-26 23:48 -33.12476 -70.69690 3252 ft 98 kts 332°
2026-04-26 23:48 -33.11868 -70.70052 3159 ft 96 kts 333°
2026-04-26 23:48 -33.11280 -70.70372 3045 ft 90 kts 335°
2026-04-26 23:49 -33.10717 -70.70589 2941 ft 88 kts
2026-04-26 23:49 -33.10264 -70.70139 2824 ft 89 kts 66°
2026-04-26 23:49 -33.10356 -70.69466 2663 ft 83 kts 129°
2026-04-26 23:49 -33.10830 -70.69094 2424 ft 83 kts 161°
2026-04-26 23:50 -33.11318 -70.68742 2220 ft 79 kts 146°
2026-04-26 23:50 -33.11726 -70.68402 2208 ft 72 kts 145°
2026-04-26 23:50 -33.12158 -70.68043 2516 ft 75 kts 148°
2026-04-26 23:50 -33.12552 -70.67606 2570 ft 83 kts 99°
2026-04-26 23:51 -33.12210 -70.67292 2426 ft 72 kts 332°
2026-04-26 23:51 -33.12029 -70.67850 2528 ft 81 kts 275°
2026-04-26 23:51 -33.11914 -70.68445 2921 ft 67 kts 297°
2026-04-26 23:51 -33.11581 -70.68820 3094 ft 73 kts 337°
2026-04-26 23:52 -33.11074 -70.68734 2916 ft 74 kts 18°
2026-04-26 23:52 -33.10602 -70.68649 2736 ft 75 kts 324°
2026-04-26 23:52 -33.10676 -70.69098 2570 ft 68 kts 203°
2026-04-26 23:52 -33.11113 -70.68928 2273 ft 68 kts 139°
2026-04-26 23:53 -33.11444 -70.68643 2202 ft 48 kts 147°
2026-04-26 23:53 -33.11796 -70.68339 2303 ft 77 kts 148°
2026-04-26 23:53 -33.12311 -70.67943 2465 ft 89 kts 148°
2026-04-26 23:53 -33.12806 -70.67525 2712 ft 93 kts 144°
2026-04-26 23:54 -33.13369 -70.67217 2918 ft 92 kts 182°
2026-04-26 23:54 -33.13838 -70.67652 3104 ft 92 kts 254°
2026-04-26 23:54 -33.13707 -70.68412 3165 ft 100 kts 300°
2026-04-26 23:54 -33.13239 -70.69020 3273 ft 100 kts 318°
2026-04-26 23:55 -33.12678 -70.69530 3304 ft 102 kts 323°
2026-04-26 23:55 -33.12085 -70.69982 3304 ft 102 kts 324°
2026-04-26 23:55 -33.11480 -70.70442 3298 ft 102 kts 329°
2026-04-26 23:55 -33.10842 -70.70802 3285 ft 102 kts 338°
2026-04-26 23:56 -33.10148 -70.71019 3234 ft 103 kts 350°
2026-04-26 23:56 -33.09433 -70.71055 3217 ft 104 kts 360°
2026-04-26 23:56 -33.08720 -70.70935 3207 ft 103 kts
2026-04-26 23:56 -33.08027 -70.70729 3238 ft 101 kts 15°
2026-04-26 23:57 -33.07363 -70.70406 3201 ft 104 kts 21°
2026-04-26 23:57 -33.06718 -70.70054 3230 ft 101 kts 24°
2026-04-26 23:57 -33.06083 -70.69667 3204 ft 102 kts 26°
2026-04-26 23:57 -33.05468 -70.69299 3253 ft 95 kts 23°
2026-04-26 23:58 -33.04905 -70.68987 3288 ft 87 kts 24°
2026-04-26 23:58 -33.04397 -70.68689 3324 ft 73 kts 11°
2026-04-26 23:58 -33.03990 -70.68967 3173 ft 66 kts 297°
2026-04-26 23:58 -33.03781 -70.69453 2939 ft 67 kts 287°
2026-04-26 23:59 -33.03935 -70.69922 2679 ft 63 kts 221°
2026-04-26 23:59 -33.04288 -70.70231 2419 ft 63 kts 216°
2026-04-26 23:59 -33.04643 -70.70525 2216 ft 61 kts 215°
2026-04-26 23:59 -33.04949 -70.70772 2164 ft 45 kts 217°
2026-04-27 00:00 -33.05333 -70.71061 2278 ft 77 kts 219°
2026-04-27 00:00 -33.05798 -70.71471 2519 ft 86 kts 214°
2026-04-27 00:00 -33.06311 -70.71813 2797 ft 86 kts 208°
2026-04-27 00:00 -33.06860 -70.72107 3057 ft 86 kts 205°
2026-04-27 00:01 -33.07411 -70.72373 3320 ft 86 kts 201°
2026-04-27 00:01 -33.08024 -70.72463 3532 ft 91 kts 175°
2026-04-27 00:01 -33.08614 -70.72218 3780 ft 91 kts 152°
2026-04-27 00:01 -33.09140 -70.71744 3941 ft 97 kts 140°
2026-04-27 00:02 -33.09641 -70.71172 3964 ft 102 kts 136°
2026-04-27 00:02 -33.10139 -70.70562 3865 ft 104 kts 135°
2026-04-27 00:02 -33.10602 -70.69894 3761 ft 104 kts 127°
2026-04-27 00:02 -33.11030 -70.69235 3631 ft 93 kts 133°
2026-04-27 00:03 -33.11447 -70.68736 3517 ft 77 kts 140°
2026-04-27 00:03 -33.11930 -70.68562 3333 ft 74 kts 200°
2026-04-27 00:03 -33.12198 -70.68984 3173 ft 71 kts 274°
2026-04-27 00:03 -33.11939 -70.69451 3039 ft 69 kts 319°
2026-04-27 00:04 -33.11518 -70.69761 2890 ft 71 kts 330°
2026-04-27 00:04 -33.11038 -70.69917 2711 ft 76 kts
2026-04-27 00:04 -33.10707 -70.69489 2560 ft 77 kts 89°
2026-04-27 00:04 -33.11003 -70.68993 2360 ft 80 kts 149°
2026-04-27 00:05 -33.11436 -70.68643 2219 ft 66 kts 147°
2026-04-27 00:05 -33.11756 -70.68384 2201 ft 47 kts 150°
2026-04-27 00:05 -33.11974 -70.68204 2203 ft 29 kts 120°
2026-04-27 00:05 -33.12014 -70.68168 2203 ft 1 kts 36°
2026-04-27 00:06 -33.11948 -70.68215 2203 ft 23 kts 324°
2026-04-27 00:06 -33.11886 -70.68359 2202 ft 11 kts 180°
2026-04-27 00:06 -33.11907 -70.68379 2202 ft 9 kts 289°
2026-04-27 00:06 -33.11831 -70.68444 2202 ft 16 kts 329°
2026-04-27 00:07 -33.11731 -70.68525 2202 ft 19 kts 324°
2026-04-27 00:07 -33.11621 -70.68620 2202 ft 20 kts 324°
2026-04-27 00:07 -33.11502 -70.68720 2202 ft 22 kts 327°
2026-04-27 00:07 -33.11375 -70.68825 2202 ft 23 kts 326°
2026-04-27 00:08 -33.11257 -70.68918 2202 ft 14 kts
2026-04-27 00:08 -33.11242 -70.68904 2202 ft 0 kts 53°
2026-04-27 00:09 -33.11226 -70.68867 2202 ft 15 kts 71°
2026-04-27 00:10 -33.11307 -70.68751 2202 ft 39 kts 146°
2026-04-27 00:10 -33.11653 -70.68448 2351 ft 73 kts 142°
2026-04-27 00:10 -33.12110 -70.68074 2632 ft 80 kts 153°
2026-04-27 00:10 -33.12616 -70.67754 2908 ft 84 kts 154°
2026-04-27 00:11 -33.13147 -70.67442 3105 ft 86 kts 160°
2026-04-27 00:11 -33.13724 -70.67194 3262 ft 89 kts 166°
2026-04-27 00:11 -33.14328 -70.66995 3409 ft 92 kts 170°
2026-04-27 00:11 -33.14969 -70.66856 3522 ft 95 kts 175°
2026-04-27 00:12 -33.15650 -70.66768 3621 ft 96 kts 178°
2026-04-27 00:12 -33.16319 -70.66686 3706 ft 100 kts 177°
2026-04-27 00:12 -33.17014 -70.66609 3810 ft 100 kts 178°
2026-04-27 00:12 -33.17714 -70.66544 3892 ft 102 kts 179°
2026-04-27 00:13 -33.18428 -70.66520 3954 ft 103 kts 182°
2026-04-27 00:13 -33.19146 -70.66519 4003 ft 104 kts 182°
2026-04-27 00:13 -33.19872 -70.66511 4038 ft 105 kts 182°
2026-04-27 00:13 -33.20601 -70.66521 4075 ft 104 kts 184°
2026-04-27 00:14 -33.21310 -70.66548 4083 ft 91 kts 185°
2026-04-27 00:14 -33.21920 -70.66605 3989 ft 94 kts 192°
2026-04-27 00:14 -33.22574 -70.66718 4192 ft 96 kts 191°
2026-04-27 00:14 -33.23255 -70.66830 4319 ft 101 kts 192°
2026-04-27 00:15 -33.23965 -70.66958 4415 ft 104 kts 189°
2026-04-27 00:15 -33.24665 -70.67043 4473 ft 97 kts 188°
2026-04-27 00:15 -33.25315 -70.67121 4460 ft 94 kts 192°
2026-04-27 00:15 -33.25942 -70.67361 4406 ft 95 kts 211°
2026-04-27 00:16 -33.26484 -70.67799 4373 ft 93 kts 220°
2026-04-27 00:16 -33.27001 -70.68271 4338 ft 93 kts 219°
2026-04-27 00:16 -33.27568 -70.68651 4300 ft 95 kts 203°
2026-04-27 00:16 -33.28191 -70.68886 4314 ft 91 kts 200°
2026-04-27 00:17 -33.28800 -70.69134 4328 ft 93 kts 200°
2026-04-27 00:17 -33.29416 -70.69292 4416 ft 91 kts 191°
2026-04-27 00:17 -33.30037 -70.69437 4473 ft 90 kts 197°
2026-04-27 00:17 -33.30650 -70.69635 4518 ft 92 kts 193°
2026-04-27 00:18 -33.31295 -70.69663 4548 ft 96 kts 181°
2026-04-27 00:18 -33.31965 -70.69636 4569 ft 98 kts 179°
2026-04-27 00:18 -33.32655 -70.69580 4557 ft 99 kts 180°
2026-04-27 00:18 -33.33355 -70.69551 4519 ft 100 kts 181°
2026-04-27 00:19 -33.34046 -70.69507 4493 ft 99 kts 177°
2026-04-27 00:19 -33.34737 -70.69326 4415 ft 103 kts 165°
2026-04-27 00:19 -33.35385 -70.68995 4406 ft 101 kts 154°
2026-04-27 00:19 -33.35999 -70.68577 4374 ft 101 kts 152°
2026-04-27 00:20 -33.36394 -70.68286 4359 ft 100 kts 150°
2026-04-27 00:20 -33.37129 -70.67606 4320 ft 101 kts 141°
2026-04-27 00:20 -33.37494 -70.67240 4295 ft 101 kts 142°
2026-04-27 00:20 -33.38184 -70.66497 4260 ft 101 kts 138°
2026-04-27 00:21 -33.38512 -70.66099 4240 ft 102 kts 136°
2026-04-27 00:21 -33.39005 -70.65496 4226 ft 101 kts 136°
2026-04-27 00:21 -33.39661 -70.64688 4190 ft 101 kts 137°
2026-04-27 00:21 -33.39998 -70.64304 4176 ft 101 kts 140°
2026-04-27 00:22 -33.40500 -70.63718 4158 ft 101 kts 136°
2026-04-27 00:22 -33.40948 -70.63077 4144 ft 101 kts 127°
2026-04-27 00:22 -33.41331 -70.62373 4126 ft 102 kts 120°
2026-04-27 00:22 -33.41575 -70.61591 4046 ft 100 kts 107°
2026-04-27 00:23 -33.41654 -70.60776 3949 ft 99 kts 84°
2026-04-27 00:23 -33.41448 -70.59999 3880 ft 98 kts 62°
2026-04-27 00:23 -33.41092 -70.59324 3819 ft 97 kts 55°
2026-04-27 00:23 -33.40744 -70.58643 3765 ft 97 kts 59°
2026-04-27 00:24 -33.40400 -70.57954 3709 ft 95 kts 54°
2026-04-27 00:24 -33.40024 -70.57372 3733 ft 80 kts 51°
2026-04-27 00:24 -33.39762 -70.56796 3729 ft 78 kts 69°
2026-04-27 00:24 -33.39559 -70.56182 3671 ft 81 kts 65°
2026-04-27 00:25 -33.39312 -70.55582 3555 ft 80 kts 63°
2026-04-27 00:25 -33.38896 -70.55227 3387 ft 70 kts
2026-04-27 00:25 -33.38448 -70.55395 3166 ft 69 kts 330°
2026-04-27 00:25 -33.38023 -70.55647 3082 ft 68 kts 330°
2026-04-27 00:26 -33.37754 -70.56087 2937 ft 69 kts 278°
2026-04-27 00:26 -33.37825 -70.56644 2687 ft 67 kts 257°
2026-04-27 00:26 -33.37916 -70.57184 2491 ft 61 kts 259°
2026-04-27 00:26 -33.37985 -70.57664 2321 ft 55 kts 262°
2026-04-27 00:27 -33.38049 -70.58076 2254 ft 41 kts 258°
2026-04-27 00:27 -33.38089 -70.58330 2253 ft 20 kts 250°
2026-04-27 00:27 -33.38065 -70.58385 2254 ft 2 kts 193°
2026-04-27 00:27 -33.38069 -70.58377 2254 ft 0 kts 77°
2026-04-27 00:28 -33.38069 -70.58373 2254 ft 7 kts 81°
2026-04-27 00:28 -33.38043 -70.58221 2254 ft 22 kts 84°
2026-04-27 00:28 -33.38011 -70.58075 2254 ft 14 kts 25°
2026-04-27 00:28 -33.38002 -70.58078 2254 ft 0 kts 175°
2026-04-27 00:29 -33.38004 -70.58078 2254 ft 3 kts 172°
2026-04-27 00:29 -33.38006 -70.58077 2254 ft 0 kts 169°